Location: Bouillancy
(49.1149°N, 2.9308°E)
Time: 07:22:05
(UTC+00:00)

Cosmos 2297 Rocket - Pass Details

Date: 30 September 2020
Orbit: 838 x 845 km, 71.0° (Epoch: 29 October)

Event Time Altitude Azimuth Distance (km) Brightness Sun altitude
Rises 21:20:16 0° 335° (NNW) 3,415 6.3 -35.6°
Reaches altitude 10° 21:23:33 10° 353° (N) 2,477 5.2 -35.9°
Enters shadow 21:26:04 17° 19° (NNE) 2,020 4.4 -36.2°
